Regional Weather Roundup
Issued by NWS

Home | Current Version | Previous Version | Graphics & Text | Print | Product List | Glossary On
Versions: 1 2 3 4 5 6 7 8 9 10 11 12 13 14 15 16 17 18 19 20 21 22 23 24 25 26 27 28 29 30 31 32 33 34 35 36 37 38 39 40 41 42 43 44 45 46 47 48 49 50
000
ASUS43 KBIS 092159
RWRND

NORTH DAKOTA REGIONAL WEATHER ROUNDUP
NATIONAL WEATHER SERVICE BISMARCK ND
500 PM CDT WED JUL 09 2014

NOTE: "FAIR" INDICATES FEW OR NO CLOUDS BELOW 12,000 FEET WITH NO
SIGNIFICANT WEATHER AND/OR OBSTRUCTIONS TO VISIBILITY.


NDZ001>003-009>011-017-092300-
NORTHWEST NORTH DAKOTA

CITY           SKY/WX    TMP DP  RH WIND       PRES   REMARKS
WILLISTON      SUNNY     84  51  31 SE7       29.93F
MINOT          SUNNY     77  54  44 SE7       29.97F
$$

NDZ018>021-031>035-040>046-092300-
SOUTHWEST NORTH DAKOTA

CITY           SKY/WX    TMP DP  RH WIND       PRES   REMARKS
BISMARCK       SUNNY     79  54  41 S7        29.99F HAZE
DICKINSON      MOSUNNY   80  55  42 SE9       29.97F
GARRISON         N/A     77  60  55 SE9       29.98F
HETTINGER ARPT SUNNY     79  52  38 SE8       29.99F
$$

NDZ004>008-012>016-024-026-027-054-092300-
NORTHEAST NORTH DAKOTA

CITY           SKY/WX    TMP DP  RH WIND       PRES   REMARKS
GRAND FORKS    MOSUNNY   74  49  41 VRB3      29.99F
GRND FRKS AFB  SUNNY     72  50  46 CALM      30.01F HAZE
DEVILS LAKE    SUNNY     73  52  46 CALM      30.00F
$$

NDZ022-023-025-028>030-036>039-047>053-092300-
SOUTHEAST NORTH DAKOTA

CITY           SKY/WX    TMP DP  RH WIND       PRES   REMARKS
FARGO          SUNNY     76  50  40 VRB7      29.99F
$$



USA.gov is the U.S. government's official web portal to all federal, state and local government web resources and services.